Wind_Speed
12 12 12 11 11 12 12 12 11 10 9 9 9 8 7 6 5 5 4 3 2 1 1 2 2 2 3 4 5 5 5 5 5 5 6 6 6 7 7 8 8 8 9
12 11 11 11 11 11 11 11 10 10 9 9 9 8 7 7 5 4 4 4 2 1 0 1 1 1 2 3 4 4 5 6 7 7 7 7 8 7 8 9 9 10 10
11 11 10 10 10 10 10 10 9 9 9 9 8 8 7 7 6 5 5 4 3 2 1 2 2 2 3 3 4 5 6 6 6 7 7 8 8 9 10 10 10 11 11
10 10 10 10 9 9 9 9 9 9 8 8 8 7 7 7 6 6 5 4 4 4 3 3 3 3 3 4 4 5 6 6 7 7 7 8 9 10 10 11 11 11 11
9 9 10 10 9 9 9 9 9 8 8 8 8 8 7 6 7 7 6 5 4 4 4 4 4 3 4 4 5 6 6 7 7 7 8 8 9 10 11 11 12 12 12
9 9 9 9 8 9 8 8 8 8 8 8 8 7 7 7 6 6 6 6 6 5 5 5 5 5 5 5 6 7 7 8 8 8 9 9 10 11 11 11 12 13 14
9 10 9 9 8 8 8 8 8 8 7 7 7 7 7 7 7 6 6 6 7 7 6 6 6 6 6 7 7 7 9 9 10 10 10 11 11 12 12 12 13 14 14
10 11 10 9 9 8 8 8 7 7 7 7 7 7 7 7 7 7 7 7 7 7 7 7 7 8 8 8 8 8 8 9 10 10 11 11 12 12 13 13 14 14 15
11 11 11 10 10 9 9 9 8 8 8 8 7 7 8 8 8 8 8 8 8 8 8 8 8 8 9 9 9 9 9 10 10 10 11 12 12 13 14 15 16 16 16
12 11 11 11 10 10 10 10 10 10 9 8 8 8 8 8 9 9 9 10 10 10 10 9 9 10 10 10 11 11 11 11 10 10 11 12 13 14 15 15 16 17 17
15 14 13 13 12 12 12 12 12 11 11 10 9 9 9 9 9 9 10 11 11 12 12 11 11 12 12 12 12 11 12 12 11 11 11 12 13 15 16 16 17 17 17
16 16 16 15 15 15 14 14 13 13 13 12 11 10 10 11 11 10 11 12 13 13 13 13 13 13 13 14 14 13 12 12 12 12 13 13 14 14 15 16 16 16 17
18 18 18 18 17 17 16 15 14 13 13 13 13 12 12 12 13 13 13 14 14 14 15 15 15 15 14 14 14 14 15 15 14 14 14 15 15 15 16 16 16 17 17
20 21 21 21 19 19 18 17 16 15 15 15 14 14 14 14 15 15 16 17 17 17 17 16 17 17 17 16 16 16 16 16 16 16 16 16 16 16 17 17 17 18 18
23 23 23 23 22 21 21 19 18 18 17 17 17 16 17 17 17 18 18 19 19 19 18 18 18 18 18 18 18 17 17 18 18 18 18 17 18 18 18 19 19 20 20
25 25 25 25 24 23 23 22 22 21 21 20 19 20 20 20 20 20 20 21 20 20 20 19 19 19 20 20 19 19 18 18 19 19 20 20 20 20 21 21 21 22 23
28 27 27 27 25 25 25 25 24 24 24 23 22 22 23 23 23 22 22 22 22 23 22 21 21 21 21 22 21 21 21 21 20 21 21 22 22 23 23 24 23 24 25
31 30 29 27 27 27 27 27 26 26 26 25 26 25 25 25 24 24 24 25 25 26 25 24 24 23 23 23 23 23 24 24 24 23 24 25 25 26 26 26 26 26 26
34 33 32 30 29 30 29 29 29 29 28 28 27 27 27 27 27 27 27 27 27 28 26 26 25 25 25 25 25 25 26 26 26 26 26 27 27 28 28 28 27 28 28
34 34 34 33 33 33 33 33 33 32 31 30 29 29 30 30 30 30 30 29 30 29 29 27 26 26 27 27 27 27 27 27 28 28 29 29 29 29 29 29 30 30 30
34 34 35 35 35 35 35 35 35 35 34 34 33 32 33 32 32 32 32 31 30 29 28 28 28 29 28 27 27 28 28 29 30 30 30 31 31 30 30 31 31 31 31
36 37 37 37 37 37 37 37 37 37 36 36 36 36 35 34 35 34 34 34 32 31 30 29 28 29 28 27 28 28 29 30 31 31 31 31 32 31 30 31 31 32 32
38 39 40 40 39 39 39 39 38 38 37 37 38 38 38 37 36 36 35 35 34 32 30 30 29 29 29 29 29 30 30 30 31 32 32 32 32 33 33 33 34 34 35
40 41 41 41 41 41 41 40 40 39 39 40 40 41 40 40 39 37 37 35 35 33 32 30 31 31 31 31 31 31 31 31 32 32 32 33 34 35 35 36 36 36 36
41 42 42 42 42 41 41 41 41 41 42 42 42 42 41 40 40 39 38 37 36 35 34 33 34 34 33 33 33 34 34 34 34 34 34 35 35 36 37 37 37 37 37
39 41 41 42 41 41 41 42 42 42 41 42 42 41 40 40 39 39 39 38 38 37 36 36 36 36 36 36 36 36 36 37 37 37 37 37 37 37 38 39 39 39 39
Wind_Direction
20 24 28 31 31 31 32 34 36 38 41 41 42 43 46 47 50 54 58 74 98 123 143 179 200 202 206 216 219 222 227 238 246 248 255 264 272 277 272 274 276 274 272
11 15 19 23 25 26 27 29 30 30 31 33 35 34 33 34 36 38 41 50 64 81 70 294 256 234 227 225 229 234 236 241 247 252 259 268 275 280 278 277 279 279 275
359 3 7 10 15 19 21 24 24 23 24 24 25 28 30 33 31 26 25 25 25 10 313 303 308 282 255 246 250 249 250 256 257 257 259 264 270 276 279 277 279 281 279
345 351 355 358 2 7 14 17 18 18 17 18 18 19 21 23 20 16 12 9 6 357 340 333 330 286 269 263 263 263 263 264 264 266 270 275 277 278 281 282 282 282 282
328 339 346 351 354 358 4 10 12 13 13 14 17 17 16 16 15 14 10 3 352 346 343 328 319 313 283 269 270 271 272 273 271 272 276 280 283 281 281 282 282 283 283
313 323 334 340 344 346 351 358 2 5 8 7 8 8 10 11 10 10 10 2 354 347 327 322 309 298 292 281 276 275 273 275 274 274 276 279 283 283 282 280 280 280 282
303 309 319 325 327 334 339 345 348 351 357 358 357 356 356 356 358 1 356 350 348 344 336 318 313 302 297 294 286 279 274 273 275 277 280 281 282 283 282 281 281 281 282
295 299 304 308 311 316 324 329 333 337 341 341 342 342 342 342 343 346 347 343 342 341 339 330 319 309 302 299 296 288 280 278 278 280 283 285 286 286 284 282 283 283 283
286 293 293 295 300 304 311 316 319 320 321 324 327 326 327 328 329 331 333 333 335 335 331 322 316 310 303 297 294 291 289 285 281 281 283 285 289 290 289 286 284 284 284
271 280 283 289 295 296 297 302 305 307 306 308 314 315 315 317 318 319 325 326 324 321 320 317 312 307 301 297 295 289 290 286 285 285 286 288 289 292 292 291 288 286 285
266 273 277 283 289 294 291 296 297 297 297 297 298 302 304 308 309 310 315 319 319 316 311 308 307 304 303 302 300 295 291 287 287 291 294 294 291 292 293 292 291 289 286
264 270 273 278 284 289 289 293 292 293 296 293 291 294 296 299 302 305 308 312 316 316 313 308 303 301 299 300 298 293 290 287 288 290 291 293 296 296 297 297 296 294 291
264 268 270 274 278 283 286 288 289 291 292 290 287 288 291 293 295 299 303 306 310 311 310 308 304 302 300 298 300 297 290 286 285 287 290 292 294 296 298 299 299 297 295
262 265 268 270 273 276 280 283 284 286 288 286 288 287 287 289 290 294 298 301 304 302 301 303 304 300 298 294 293 296 293 287 285 286 288 290 292 294 295 297 298 297 296
257 261 266 269 270 273 275 276 277 279 282 283 283 283 284 285 287 290 293 297 299 302 298 299 302 297 297 295 289 290 290 286 284 284 285 286 288 291 292 293 295 296 296
256 257 262 266 267 269 271 272 272 274 276 277 279 280 281 283 285 287 288 291 293 295 297 294 294 294 294 296 292 286 286 286 285 284 283 283 285 288 289 290 292 294 295
256 258 260 263 266 267 267 267 272 273 273 273 275 276 278 282 284 286 288 288 289 291 292 292 292 291 290 290 289 283 280 281 284 284 283 284 284 286 288 288 289 293 295
255 256 257 259 261 263 265 267 268 270 271 273 274 274 276 279 282 284 286 285 285 287 286 288 290 288 288 287 287 283 280 278 280 282 283 283 283 284 284 285 287 290 292
256 256 256 257 259 261 263 265 268 269 271 274 275 275 275 276 277 280 282 283 282 284 283 286 286 285 284 286 285 283 283 280 277 278 281 282 281 281 282 283 286 288 289
255 256 257 256 258 260 262 264 267 270 271 272 273 274 276 276 278 280 279 279 281 280 280 282 284 286 284 285 287 284 281 280 277 277 279 280 281 281 280 281 284 285 287
254 255 256 257 259 261 262 264 266 268 271 271 272 273 275 277 278 279 280 278 278 281 282 281 283 286 286 287 286 284 283 280 278 277 279 280 280 281 280 281 282 284 285
254 255 256 257 259 261 262 263 264 266 268 270 271 273 274 275 276 277 278 279 282 280 281 282 283 287 288 287 284 282 283 281 279 278 280 282 281 281 281 281 283 283 285
256 256 257 258 258 260 261 262 263 264 266 268 270 273 275 276 278 278 278 279 280 281 281 282 283 286 288 286 283 282 281 280 281 282 283 283 282 281 282 281 281 281 283
258 257 258 260 261 260 260 262 263 264 266 268 270 271 273 276 277 276 278 281 280 279 280 281 283 284 284 284 283 282 281 281 281 282 282 283 282 281 281 282 281 281 283
260 259 259 260 261 261 261 262 264 265 267 269 270 271 273 275 276 278 279 281 282 280 279 279 280 281 281 282 282 281 280 280 281 281 281 280 280 280 281 281 282 282 284
262 262 262 261 261 261 261 261 263 265 267 269 269 270 273 274 276 278 278 279 281 279 277 277 276 277 279 279 280 281 282 282 281 280 280 280 280 280 280 280 280 281 282
Height
5918 5916 5914 5912 5910 5908 5906 5904 5902 5901 5899 5898 5896 5895 5894 5893 5892 5892 5891 5890 5890 5890 5890 5890 5891 5891 5891 5891 5892 5892 5892 5893 5893 5893 5894 5894 5894 5894 5894 5893 5893 5893 5893
5919 5917 5915 5913 5911 5909 5907 5905 5903 5902 5900 5899 5897 5896 5895 5894 5893 5892 5891 5891 5890 5890 5890 5890 5890 5890 5890 5891 5891 5891 5891 5892 5892 5892 5892 5892 5893 5892 5892 5891 5891 5891 5891
5920 5918 5916 5914 5912 5910 5908 5906 5904 5903 5901 5900 5898 5897 5896 5895 5894 5893 5892 5891 5890 5890 5890 5890 5890 5890 5890 5890 5890 5890 5890 5891 5891 5890 5891 5891 5891 5890 5890 5889 5889 5889 5888
5921 5919 5917 5915 5913 5911 5909 5907 5905 5904 5902 5900 5899 5898 5897 5895 5894 5893 5892 5891 5890 5890 5890 5889 5889 5889 5889 5889 5889 5889 5889 5889 5889 5889 5889 5889 5888 5888 5888 5887 5886 5886 5885
5920 5919 5917 5915 5913 5911 5909 5907 5906 5904 5903 5901 5900 5898 5897 5896 5894 5893 5892 5891 5890 5890 5889 5889 5888 5888 5887 5888 5888 5888 5887 5887 5887 5886 5886 5886 5886 5885 5885 5884 5883 5883 5882
5919 5918 5917 5915 5913 5911 5909 5908 5906 5904 5903 5902 5900 5899 5897 5896 5894 5893 5892 5891 5890 5889 5889 5888 5887 5887 5886 5886 5886 5885 5885 5885 5884 5884 5884 5883 5883 5882 5881 5881 5880 5879 5879
5918 5917 5916 5914 5913 5911 5909 5907 5906 5904 5903 5901 5900 5899 5897 5896 5894 5893 5892 5891 5889 5888 5887 5887 5886 5885 5885 5884 5883 5883 5883 5882 5882 5881 5881 5880 5879 5879 5878 5878 5877 5876 5875
5916 5915 5914 5913 5912 5910 5909 5907 5905 5904 5902 5901 5899 5898 5897 5895 5894 5893 5891 5890 5889 5887 5886 5885 5884 5883 5883 5882 5881 5881 5880 5879 5879 5878 5878 5877 5876 5876 5875 5874 5873 5872 5871
5913 5913 5912 5911 5910 5909 5908 5906 5905 5903 5901 5900 5898 5897 5896 5895 5893 5892 5891 5889 5888 5887 5885 5884 5883 5882 5881 5880 5879 5878 5877 5877 5876 5875 5875 5874 5873 5872 5872 5870 5870 5869 5868
5910 5910 5909 5909 5908 5907 5905 5904 5903 5902 5900 5899 5897 5896 5895 5893 5892 5891 5889 5888 5887 5885 5884 5882 5881 5880 5879 5877 5876 5875 5874 5873 5873 5872 5871 5871 5870 5869 5868 5867 5866 5864 5864
5907 5907 5906 5906 5905 5904 5903 5902 5900 5899 5898 5897 5896 5894 5893 5891 5890 5889 5888 5886 5885 5883 5882 5880 5879 5877 5876 5875 5874 5872 5871 5870 5870 5869 5868 5867 5866 5865 5864 5863 5862 5860 5858
5902 5903 5903 5902 5902 5901 5900 5898 5897 5896 5895 5894 5893 5892 5891 5889 5888 5887 5885 5884 5882 5881 5879 5878 5876 5874 5873 5872 5871 5869 5868 5867 5866 5865 5865 5864 5863 5862 5860 5859 5857 5856 5854
5898 5898 5898 5898 5898 5897 5896 5895 5894 5893 5892 5891 5890 5889 5888 5886 5885 5884 5882 5881 5879 5878 5876 5875 5873 5871 5870 5868 5867 5866 5864 5863 5862 5861 5861 5860 5859 5858 5856 5855 5853 5852 5850
5893 5893 5893 5893 5893 5892 5892 5891 5890 5889 5888 5887 5886 5885 5884 5883 5882 5881 5879 5878 5876 5874 5872 5871 5870 5868 5866 5864 5863 5861 5860 5859 5858 5857 5856 5855 5854 5853 5852 5850 5849 5847 5845
5887 5887 5887 5887 5887 5887 5887 5887 5886 5885 5884 5884 5883 5881 5880 5879 5878 5876 5875 5874 5872 5870 5868 5867 5865 5863 5862 5860 5859 5857 5855 5854 5853 5852 5851 5850 5849 5848 5847 5846 5844 5842 5840
5880 5881 5881 5881 5881 5881 5881 5881 5881 5880 5879 5878 5877 5876 5875 5874 5873 5872 5870 5869 5867 5865 5863 5862 5860 5858 5857 5855 5853 5852 5850 5849 5848 5847 5846 5845 5844 5843 5841 5840 5838 5837 5835
5873 5873 5874 5874 5874 5875 5875 5875 5874 5874 5873 5872 5871 5870 5870 5869 5868 5866 5865 5863 5861 5859 5857 5856 5854 5853 5851 5849 5847 5846 5845 5844 5842 5841 5840 5839 5838 5837 5835 5834 5832 5830 5829
5865 5865 5866 5866 5867 5868 5867 5867 5867 5867 5866 5865 5864 5864 5864 5863 5861 5860 5859 5857 5855 5854 5851 5849 5847 5846 5844 5843 5841 5839 5838 5837 5836 5835 5834 5832 5831 5830 5828 5827 5825 5824 5822
5856 5857 5858 5859 5859 5860 5860 5860 5860 5859 5859 5858 5857 5857 5856 5855 5854 5853 5851 5849 5848 5846 5844 5842 5840 5839 5837 5836 5834 5832 5831 5830 5829 5828 5826 5825 5823 5822 5821 5820 5818 5816 5815
5847 5848 5849 5850 5850 5851 5851 5851 5851 5851 5851 5850 5850 5849 5848 5847 5846 5845 5843 5842 5840 5838 5836 5835 5833 5831 5830 5828 5827 5825 5823 5822 5820 5819 5818 5817 5816 5814 5813 5812 5810 5808 5807
5837 5838 5839 5840 5841 5841 5841 5841 5842 5842 5842 5841 5840 5840 5839 5838 5837 5836 5835 5832 5831 5829 5826 5827 5825 5824 5821 5820 5818 5817 5815 5814 5812 5811 5809 5808 5807 5806 5804 5803 5801 5800 5798
5826 5827 5829 5830 5830 5831 5831 5832 5832 5832 5832 5832 5831 5831 5830 5829 5828 5827 5825 5824 5822 5821 5819 5817 5816 5815 5813 5811 5810 5809 5807 5806 5804 5802 5801 5800 5799 5797 5796 5794 5793 5791 5789
5815 5816 5817 5818 5819 5819 5820 5821 5821 5822 5822 5822 5821 5821 5820 5819 5818 5817 5815 5814 5814 5812 5810 5809 5808 5807 5804 5803 5802 5801 5799 5798 5796 5794 5792 5791 5790 5788 5787 5785 5783 5781 5779
5803 5804 5805 5807 5808 5808 5809 5810 5811 5811 5811 5811 5811 5810 5810 5809 5808 5806 5805 5804 5802 5801 5800 5799 5799 5798 5796 5795 5793 5791 5790 5789 5787 5785 5783 5782 5780 5779 5777 5775 5773 5771 5770
5791 5792 5793 5795 5796 5797 5797 5798 5799 5800 5800 5800 5799 5799 5798 5798 5797 5796 5795 5793 5792 5790 5790 5789 5789 5787 5786 5785 5784 5781 5780 5778 5777 5775 5773 5771 5769 5768 5766 5764 5763 5761 5759
5779 5780 5781 5782 5783 5784 5785 5786 5787 5787 5788 5788 5788 5787 5787 5786 5786 5784 5784 5782 5782 5780 5779 5779 5778 5776 5775 5774 5772 5771 5769 5767 5765 5763 5761 5760 5758 5757 5755 5753 5752 5750 5748